Regional Weather Roundup
Issued by NWS Northern Indiana

Home | Current Version | Previous Version | Text Only | Print | Product List | Glossary On
Versions: 1 2 3 4 5 6 7 8 9 10 11 12 13 14 15 16 17 18 19 20 21 22 23 24 25 26 27 28 29 30 31 32 33 34 35 36 37 38 39 40 41 42 43 44 45 46 47 48 49 50
000
ASUS43 KIWX 040100
RWRIWX

KIWX WEATHER ROUNDUP
NATIONAL WEATHER SERVICE NORTHERN INDIANA
900 PM EDT SUN MAY 03 2015

NOTE: "FAIR" INDICATES FEW OR NO CLOUDS BELOW 12,000 FEET WITH NO
SIGNIFICANT WEATHER AND/OR OBSTRUCTIONS TO VISIBILITY.

* THESE STATIONS ARE NOT UNDER NWS QUALITY CONTROL. THEY ALSO MAY NOT
  REPORT WEATHER SUCH AS PRECIPITATION OR FOG.

INZ001>027-040200-
NORTHERN INDIANA

CITY           SKY/WX    TMP DP  RH WIND       PRES   REMARKS
GARY*          CLOUDY    75 N/A N/A S9        29.95R
SOUTH BEND     CLOUDY    74  44  34 S9        29.98R
GOSHEN         CLOUDY    71  47  42 S9        29.99S
ANGOLA*        PTCLDY    70  48  46 S6        30.01S
FORT WAYNE     MOCLDY    67  50  54 S8        30.03S
PERU/GRISSOM   MOCLDY    68  48  47 S7        30.01R

$$
INZ028>050-040200-
CENTRAL INDIANA

CITY           SKY/WX    TMP DP  RH WIND       PRES   REMARKS
LAFAYETTE      CLOUDY    71  45  39 S6        29.99R
MUNCIE*        CLEAR     72  46  39 S8        30.04R
INDIANAPOLIS   MOCLDY    71  44  37 S9        30.02R

$$
MIZ043>046-050>051-056>058-064>065-071>073-077>080-040200-
SOUTHWEST LOWER MICHIGAN

CITY           SKY/WX    TMP DP  RH WIND       PRES   REMARKS
BATTLE CREEK   MOCLDY    71  46  40 S10       29.99S
BENTON HARBOR  CLOUDY    73  46  38 S9        29.94S
COLDWATER*     PTCLDY    70  43  38 S6        30.00R
HILLSDALE*     PTCLDY    69  45  41 S3        30.02S
HOLLAND        CLOUDY    71  47  42 S7        29.93F
GRAND RAPIDS   MOCLDY    70  47  43 S8        29.94S
KALAMAZOO      MOCLDY    71  46  40 S7        29.98R
STURGIS*       MOCLDY    70  46  43 S8        29.99S
THREE RIVERS*  FAIR      71  46  41 S6        29.98S

$$
OHZ001>008-015>018-024>025-040200-
NORTHWEST OHIO

CITY           SKY/WX    TMP DP  RH WIND       PRES   REMARKS
DEFIANCE       CLEAR     69  47  45 S5        30.03R
FINDLAY        PTCLDY    67  47  48 S7        30.04R
TOLEDO EXPRESS PTCLDY    70  44  39 S3        30.02S
TOLEDO METCALF PTCLDY    69  44  40 S7        30.03S
LIMA           PTCLDY    69  47  45 S6        30.06R

$$
AND FOR LAKE MICHIGAN COASTAL AND OPEN LAKE BUOY OBSERVATIONS

STATION/POSITION TEMP    WIND        PRES    VSBY  WAVE
                 AIR SEA DIR/SP/G                  HT/PER
                 (F)     (DEG/KT/KT) (MB)    (MI)  (FT/S)
CALUMET HARBOR    70     310/  3/  7   N/A
MICHIGAN CITY     77     170/ 10/ 12   N/A
BURNS HARBOR      75     180/  9/ 16 1014.6S
SAINT JOSEPH      76     170/  4/ 11 1014.6R
4 MI NW BRIDGMAN  63 50  220/ 10/ 12   N/A           1/ 3
MICHIGAN CITY     63 51  210/  6/  8   N/A           1
MICHIGAN CITY CG     54              1015.8   3 1/2  1
SAINT JOSEPH CG                      1013.4      6   1

$$
&&


USA.gov is the U.S. government's official web portal to all federal, state and local government web resources and services.